User: anonymous   Login
Location: Bílinka
(49.3579°N, 14.3767°E)
Time: 20:07:00
(UTC+00:00)
Language:

CZ-4 DEB - Orbit

View from above orbital plane
View from above orbital plane
View from above satellite
View from above satellite

Ground track
Ground track

The orbit data is extracted from the following two-line orbital elements,

1 32473U 07042C   24057.54166465  .00004831  00000-0  10896-2 0  9999
2 32473  98.0044  88.0037 0101401 349.6633  10.2478 14.53611531856004
Epoch (UTC): 26 February 2024 12:59:59
Eccentricity: 0.0101401
inclination: 98.0044°
perigee height: 642 km
apogee height: 786 km
right ascension of ascending node: 88.0037°
argument of perigee: 349.6633°
revolutions per day: 14.53611531
mean anomaly at epoch: 10.2478°
orbit number at epoch: 85600

The dashed part of the orbit path shows where the satellite is in the earth's shadow,  

DLR